Location: Batang Balui
(2.7000°N, 113.7833°E)
Time: 18:24:47
(UTC+00:00)

VELOX 1 - Pass Details

Date: 02 April 2023
Orbit: 617 x 630 km, 98.4° (Epoch: 01 June)

Event Time Altitude Azimuth Distance (km) Brightness Sun altitude
Rises 11:00:07 0° 354° (N) 2,875 ? -7.6°
Reaches altitude 10° 11:02:31 10° 342° (NNW) 1,973 ? -8.2°
Maximum altitude 11:06:13 29° 283° (WNW) 1,148 ? -9.1°
Drops below altitude 10° 11:09:56 10° 223° (SW) 1,986 ? -10.1°
Sets 11:12:22 0° 211° (SSW) 2,896 ? -10.7°
